Location: Cutler
(25.6150°N, 80.3110°W)
Time: 11:56:29
(UTC-05:00)

Vanguard 2 - Visible Passes

Search period start: 23 November 2017 00:00
Search period end: 03 December 2017 00:00
Orbit: 553 x 2939 km, 32.9° (Epoch: 23 November)

Date Brightness Start Highest point End Pass type
(mag) Time Alt. Az. Time Alt. Az. Time Alt. Az.
23 Nov 11.7 01:04:13 12° E 01:04:13 12° E 01:04:53 10° E visible
23 Nov 9.9 03:05:39 70° ESE 03:05:39 70° ESE 03:20:17 10° ESE visible
23 Nov 10.4 05:07:05 28° W 05:15:30 51° SSW 05:32:27 10° SE visible
24 Nov 11.5 01:21:28 16° E 01:21:28 16° E 01:23:54 10° E visible
24 Nov 9.7 03:22:54 76° SSE 03:22:54 76° SSE 03:38:45 10° ESE visible
24 Nov 10.6 05:24:21 21° W 05:33:49 40° SW 05:49:45 10° SSE visible
24 Nov 9.0 18:58:03 10° S 19:00:11 15° SSE 19:00:11 15° SSE visible
25 Nov 11.3 01:38:43 21° E 01:38:43 21° E 01:42:51 10° E visible
25 Nov 9.7 03:40:10 68° SSW 03:40:10 68° SSW 03:56:56 10° SE visible
25 Nov 10.9 05:41:36 14° W 05:52:10 31° SW 06:06:36 10° SSE visible
25 Nov 8.4 19:14:54 10° SSW 19:17:29 25° SSE 19:17:29 25° SSE visible
26 Nov 11.0 01:55:59 26° ESE 01:55:59 26° ESE 02:01:41 10° ESE visible
26 Nov 9.9 03:57:26 55° SW 03:58:22 55° SSW 04:14:48 10° SE visible
26 Nov 11.1 05:59:58 10° W 06:10:34 23° SW 06:22:48 10° S visible
26 Nov 8.3 19:32:25 10° SW 19:34:46 32° SSW 19:34:46 32° SSW visible
27 Nov 10.8 02:13:15 31° ESE 02:13:15 31° ESE 02:20:17 10° ESE visible
27 Nov 10.1 04:14:41 42° SW 04:16:44 44° SSW 04:32:18 10° SSE visible
27 Nov 11.3 06:21:06 10° WSW 06:29:05 16° SW 06:37:52 10° S visible
27 Nov 8.9 19:50:18 10° WSW 19:52:01 26° WSW 19:52:01 26° WSW visible
28 Nov 10.7 02:30:30 35° SE 02:30:30 35° SE 02:38:38 10° SE visible
28 Nov 10.4 04:31:56 31° SW 04:35:09 33° SSW 04:49:23 10° SSE visible
28 Nov 8.6 18:01:32 10° SSW 18:04:30 19° SSE 18:07:27 10° E visible
28 Nov 9.7 20:08:25 10° WSW 20:09:17 16° W 20:09:17 16° W visible
29 Nov 10.6 02:47:44 37° SSE 02:47:44 37° SSE 02:56:41 10° SE visible
29 Nov 10.7 04:49:10 21° WSW 04:53:37 25° SSW 05:05:53 10° SSE visible
29 Nov 7.8 18:18:47 10° SW 18:22:30 34° SSE 18:25:04 17° E visible
30 Nov 10.5 03:04:57 35° SSE 03:04:57 35° SSE 03:14:21 10° SE visible
30 Nov 11.0 05:06:23 13° WSW 05:12:11 17° SSW 05:21:30 10° S visible
30 Nov 7.0 18:36:32 10° SW 18:40:32 60° SSE 18:42:18 30° E visible
01 Dec 10.6 03:22:08 31° S 03:22:08 31° S 03:31:38 10° SSE visible
01 Dec 11.3 05:27:42 10° SW 05:30:55 11° SSW 05:34:20 10° SSW visible
01 Dec 6.7 18:54:35 10° WSW 18:58:37 82° NNW 18:59:30 53° ENE visible
02 Dec 11.6 01:37:52 12° SE 01:37:52 12° SE 01:38:33 10° SE visible
02 Dec 10.8 03:39:18 24° SSW 03:39:18 24° SSW 03:48:22 10° SSE visible
02 Dec 7.2 19:12:52 10° W 19:16:42 53° NNW 19:16:42 53° NNW visible
